Location: Christian Reformed Church
(43.0975°N, 93.8113°W)
Time: 10:45:28
(UTC+00:00)

IRS-P3 - Pass Details

Date: 20 March 2026
Orbit: 810 x 816 km, 99.0° (Epoch: 20 April)

Event Time Altitude Azimuth Distance (km) Brightness Sun altitude
Rises 01:22:21 0° 194° (SSW) 3,328 7.4 -11.0°
Reaches altitude 10° 01:25:00 10° 206° (SSW) 2,400 6.8 -11.4°
Maximum altitude 01:29:31 28° 265° (W) 1,489 6.4 -12.2°
Drops below altitude 10° 01:34:04 10° 323° (NW) 2,414 7.3 -13.0°
Sets 01:36:45 0° 335° (NNW) 3,349 7.9 -13.5°
